Back to catalog

AC1-002

AliveScienceSSO
NORAD 66745·PAYLOAD·🇬🇧 United Kingdom

Launched Nov 28, 2025 from Vandenberg Space Force Base

Loading…

Next Passes (next 24 hours)

TLE

FreshSource: Space-Track

Epoch: Sep 14, 2026, 04:21 UTC

1 66745U 25276CH  26257.18139457  .00001676  00000-0  83883-4 0  9994
2 66745  97.4121 328.8250 0003458  61.3113 298.8469 15.18757506 43915

Track AC1-002 in real time with AllMySat

Download on the App Store